Location: Ferchesar
(52.6477°N, 12.4298°E)
Time: 04:36:49
(UTC+01:00)

Vanguard 3 - Pass Details

Date: 07 December 2021
Orbit: 508 x 3260 km, 33.3° (Epoch: 21 January)

Event Time Altitude Azimuth Distance (km) Brightness Sun altitude
Rises 03:44:04 0° 233° (SW) 6,895 - -38.5°
Reaches altitude 10° 03:49:00 10° 226° (SW) 6,062 - -37.7°
Exits shadow 03:57:25 27° 207° (SSW) 4,858 10.7 -36.5°
Maximum altitude 04:05:49 37° 169° (S) 4,230 10.6 -35.2°
Drops below altitude 10° 04:20:32 10° 110° (ESE) 5,342 12.0 -33.0°
Sets 04:24:32 0° 103° (ESE) 6,031 12.6 -32.4°
